Location: Limerick
(52.6650°N, 8.6230°W)
Time: 21:44:52
(UTC+00:00)

ISS - Pass Details

Date: 29 March 2017
Orbit: 399 x 409 km, 51.6° (Epoch: 26 March)

Event Time Altitude Azimuth Distance (km) Brightness Sun altitude
Rises 22:13:44 0° 239° (WSW) 2,310 0.3 -19.1°
Reaches altitude 10° 22:15:51 10° 233° (SW) 1,455 -0.8 -19.3°
Enters shadow 22:17:42 28° 214° (SW) 786 -2.4 -19.6°
